Tracking 28792 objects as of 25-Apr-2024
HD Live streaming from Space Station
objects crossing your sky now

INSAT 3DS

Track INSAT 3DS now!


NORAD ID: 58990
Int'l Code: 2024-033A
Perigee: 35,743.8 km
Apogee: 35,843.6 km
Inclination: 0.2 °
Period: 1,436.1 minutes
Semi major axis: 42164 km
RCS: Unknown
Launch date: February 17, 2024
Source: India (IND)
Launch site: SRIHARIKOTA (SRI)
Your satellite tracking list
Your tracking list is empty




NASA's NSSDC Master Catalog

Two Line Element Set (TLE):
1 58990U 24033A   24116.09424437 -.00000150  00000-0  00000+0 0  9996
2 58990   0.1549  87.4213 0011830 359.5481 243.5682  1.00271994   974
Source of the keplerian elements: AFSPC